Location: Marcé
(47.5801°N, 0.3280°W)
Time: 14:33:51
(UTC+01:00)

Explorer 7 - Pass Details

Date: 05 December 2021
Orbit: 483 x 674 km, 50.3° (Epoch: 19 January)

Event Time Altitude Azimuth Distance (km) Brightness Sun altitude
Rises 06:14:27 0° 224° (SW) 2,855 - -22.5°
Reaches altitude 10° 06:16:53 10° 218° (SW) 1,921 - -22.1°
Exits shadow 06:18:55 24° 203° (SSW) 1,217 8.4 -21.8°
Maximum altitude 06:21:01 41° 147° (SSE) 826 8.0 -21.4°
Drops below altitude 10° 06:24:55 10° 77° (ENE) 1,814 10.4 -20.8°
Sets 06:27:09 0° 70° (ENE) 2,676 11.3 -20.4°
